Location: Monroe
(41.3286°N, 74.1872°W)
Time: 01:39:42
(UTC+00:00)

Tiangong - Visible Passes

Search period start: 19 January 2026 00:00
Search period end: 29 January 2026 00:00
Orbit: 378 x 393 km, 41.5° (Epoch: 18 January)

Date Brightness Start Highest point End Pass type
(mag) Time Alt. Az. Time Alt. Az. Time Alt. Az.
19 Jan -0.6 10:24:49 28° S 10:25:16 30° SSE 10:28:07 10° E visible
20 Jan -1.9 11:00:51 24° WSW 11:02:37 66° SSE 11:05:48 10° E visible
21 Jan -0.1 10:04:28 29° ESE 10:04:28 29° ESE 10:06:22 10° E visible
21 Jan -2.1 11:36:52 10° W 11:40:04 86° N 11:43:17 10° E visible
22 Jan -2.2 10:40:13 64° WSW 10:40:38 85° S 10:43:50 10° E visible
23 Jan 1.0 09:43:37 16° E 09:43:37 16° E 09:44:21 10° E visible
23 Jan -2.2 11:15:51 18° W 11:18:02 87° N 11:21:14 10° E visible
24 Jan -1.4 10:19:11 53° E 10:19:11 53° E 10:21:43 10° E visible
25 Jan -2.2 10:54:41 35° W 10:55:51 81° S 10:59:02 10° ESE visible
26 Jan 0.1 09:57:56 26° E 09:57:56 26° E 09:59:28 10° E visible
26 Jan -1.3 11:30:09 11° W 11:33:02 42° SSW 11:36:04 10° SE visible
27 Jan -2.1 10:33:22 60° SSW 10:33:29 61° SSW 10:36:38 10° ESE visible
28 Jan 1.2 09:36:36 13° ESE 09:36:36 13° ESE 09:37:02 10° ESE visible
28 Jan -0.7 11:08:49 17° WSW 11:10:30 27° SSW 11:13:13 10° SE visible
